Imrali, Turkey

3:08 PM +03 on August 17, 2017 (GMT +0300)
Imrali

Weather History for 17060 - February, 2013

Change the Weather History Date:

Thursday, February 28, 2013

  Actual Average Record
Temperature  
Mean Temperature 40 °F -  
Max Temperature 45 °F 51 °F - ()
Min Temperature 35 °F 39 °F - ()
Degree Days  
Heating Degree Days 25    
Moisture  
Dew Point 37 °F    
Average Humidity 83    
Maximum Humidity 93    
Minimum Humidity 67    
Precipitation  
Precipitation 0.04 in - - ()
Sea Level Pressure  
Sea Level Pressure 30.15 in    
Wind  
Wind Speed 16 mph ()    
Max Wind Speed 26 mph    
Max Gust Speed -    
Visibility 4.6 miles    
Events Rain    
T = Trace of Precipitation, MM = Missing Value Source: Averaged Metar Reports

Daily Weather History Graph

Daily Weather History Graph

Search for Another Location

Airport or City:

Trip Planner

Search our weather history database for the weather conditions in past years. The results will help you decide how hot, cold, wet, or windy it might be!

Date:

Astronomy

Feb. 28, 2013 Rise Set
Actual Time 6:40 AM EET 5:54 PM EET
Civil Twilight 6:12 AM EET 6:22 PM EET
Nautical Twilight 5:41 AM EET 6:54 PM EET
Astronomical Twilight 5:09 AM EET 7:25 PM EET
Moon 9:01 PM EET (2/28) 7:36 AM EET (2/28)
Length of Visible Light 12h 09m
Length of Day
11h 14m
Waning Gibbous, 93% of the Moon is Illuminated
Feb 28
Waning Gibbous
Mar 4
Last Quarter
Mar 11
New
Mar 19
First Quarter
Mar 27
Full

Hourly Weather History & Observations

Time (EET) Temp. Windchill Dew Point Humidity Pressure Visibility Wind Dir Wind Speed Gust Speed Precip Events Conditions
12:20 AM 42.8 °F 34.5 °F 39.2 °F 87% 30.06 in 6.2 mi NNW 18.4 mph - N/A   Mostly Cloudy
12:50 AM 42.8 °F 34.0 °F 37.4 °F 81% 30.06 in 6.2 mi NNW 20.7 mph - N/A   Mostly Cloudy
1:20 AM 41.0 °F 32.5 °F 37.4 °F 87% 30.06 in 6.2 mi NNW 17.3 mph - N/A   Scattered Clouds
1:50 AM 41.0 °F 32.5 °F 37.4 °F 87% 30.06 in 4.3 mi NNW 17.3 mph - N/A   Mostly Cloudy
2:00 AM 42 °F - 37 °F 77% 30.10 in 4 mi NNW 17.3 mph - -   Mist
2:20 AM 41.0 °F 32.8 °F 39.2 °F 93% 30.09 in 4.3 mi NNW 16.1 mph - N/A   Mostly Cloudy
2:50 AM 41.0 °F 33.5 °F 39.2 °F 93% 30.06 in 3.7 mi NNW 13.8 mph - N/A Rain Light Rain Showers
3:20 AM 42.8 °F 34.5 °F 41.0 °F 93% 30.06 in 4.3 mi North 18.4 mph - N/A Rain Light Rain Showers
3:50 AM 42.8 °F 34.8 °F 39.2 °F 87% 30.06 in 6.2 mi North 17.3 mph - N/A   Mostly Cloudy
4:20 AM 42.8 °F 34.5 °F 39.2 °F 87% 30.06 in 6.2 mi NNW 18.4 mph - N/A   Mostly Cloudy
4:50 AM 41.0 °F 31.6 °F 39.2 °F 93% 30.09 in 6.2 mi NNW 20.7 mph - N/A   Mostly Cloudy
5:20 AM 41.0 °F 32.2 °F 39.2 °F 93% 30.09 in 5.0 mi NNW 18.4 mph - N/A Rain Light Rain Showers
5:50 AM 42.8 °F 34.0 °F 37.4 °F 81% 30.09 in 5.0 mi NNW 20.7 mph - N/A Rain Light Rain Showers
6:20 AM 42.8 °F 33.8 °F 37.4 °F 81% 30.09 in 5.0 mi NNW 21.9 mph - N/A Rain Light Rain Showers
6:50 AM 41.0 °F 31.4 °F 37.4 °F 87% 30.09 in 6.2 mi NNW 21.9 mph - N/A   Mostly Cloudy
7:20 AM 42.8 °F 33.3 °F 39.2 °F 87% 30.09 in 4.3 mi North 24.2 mph - N/A Rain Light Rain Showers
7:50 AM 41.0 °F 30.5 °F 37.4 °F 87% 30.12 in 4.3 mi North 26.5 mph - N/A Rain Light Rain Showers
8:00 AM 42 °F - 37 °F 75% 30.13 in 12 mi North 26.5 mph - - Rain Light Rain Showers
8:20 AM 41.0 °F 31.1 °F 37.4 °F 87% 30.15 in 4.3 mi North 23.0 mph - N/A Rain Light Rain Showers
8:50 AM 42.8 °F 34.3 °F 37.4 °F 81% 30.15 in 4.3 mi North 19.6 mph - N/A Rain Light Rain Showers
9:20 AM 42.8 °F 35.1 °F 37.4 °F 81% 30.15 in 4.3 mi North 16.1 mph - N/A   Mostly Cloudy
9:50 AM 42.8 °F 35.1 °F 37.4 °F 81% 30.15 in 6.2 mi North 16.1 mph - N/A Rain Light Rain Showers
10:20 AM 42.8 °F 35.4 °F 37.4 °F 81% 30.15 in 6.2 mi NNW 15.0 mph - N/A Rain Light Rain Showers
10:50 AM 42.8 °F 34.3 °F 37.4 °F 81% 30.18 in 6.2 mi NNW 19.6 mph - N/A Rain Light Rain Showers
11:20 AM 42.8 °F 34.0 °F 37.4 °F 81% 30.18 in 3.7 mi NNW 20.7 mph - N/A   Mostly Cloudy
11:50 AM 42.8 °F 33.8 °F 37.4 °F 81% 30.18 in 3.7 mi NNW 21.9 mph - N/A   Mostly Cloudy
12:20 PM 41.0 °F 31.9 °F 37.4 °F 87% 30.18 in 3.7 mi NW 19.6 mph - N/A   Mostly Cloudy
12:50 PM 41.0 °F 33.9 °F 39.2 °F 93% 30.18 in 3.7 mi NW 12.7 mph - N/A   Mostly Cloudy
1:20 PM 42.8 °F 35.4 °F 39.2 °F 87% 30.15 in 3.7 mi NNW 15.0 mph - N/A   Mostly Cloudy
1:50 PM 42.8 °F 36.2 °F 41.0 °F 93% 30.15 in 3.7 mi NW 12.7 mph - N/A   Mostly Cloudy
2:00 PM 43 °F - 40 °F 86% 30.18 in 4 mi NW 12.7 mph - -   Mist
2:20 PM 44.6 °F 38.8 °F 42.8 °F 93% 30.15 in 3.7 mi North 11.5 mph - N/A Rain Light Rain Showers
2:50 PM 44.6 °F 37.2 °F 39.2 °F 81% 30.18 in 3.7 mi NNE 17.3 mph - N/A Rain Light Rain Showers
3:20 PM 44.6 °F 38.1 °F 39.2 °F 81% 30.18 in 3.7 mi North 13.8 mph - N/A Rain Light Rain Showers
3:50 PM 42.8 °F 35.4 °F 39.2 °F 87% 30.18 in 1.9 mi North 15.0 mph - N/A Rain Light Rain Showers
4:20 PM 42.8 °F 35.1 °F 37.4 °F 81% 30.18 in 4.3 mi North 16.1 mph - N/A Rain Light Rain Showers
4:50 PM 42.8 °F 35.4 °F 37.4 °F 81% 30.18 in 3.7 mi North 15.0 mph - N/A Rain Light Rain Showers
5:20 PM 44.6 °F 38.8 °F 37.4 °F 76% 30.21 in 3.7 mi North 11.5 mph - N/A Rain Light Rain Showers
5:50 PM 42.8 °F 35.8 °F 37.4 °F 81% 30.21 in 3.7 mi North 13.8 mph - N/A Rain Light Rain Showers
6:20 PM 42.8 °F 36.6 °F 37.4 °F 81% 30.21 in 3.7 mi North 11.5 mph - N/A Rain Light Rain Showers
6:50 PM 42.8 °F 35.8 °F 37.4 °F 81% 30.21 in 3.7 mi North 13.8 mph - N/A Rain Light Rain Showers
7:20 PM 42.8 °F 36.2 °F 35.6 °F 76% 30.21 in 3.7 mi North 12.7 mph - N/A   Mostly Cloudy
7:50 PM 41.0 °F 34.7 °F 35.6 °F 81% 30.21 in 4.3 mi North 10.4 mph - N/A   Mostly Cloudy
8:00 PM 42 °F - 35 °F 67% 30.24 in 4 mi North 10.4 mph - - Rain Light Rain Showers
8:20 PM 41.0 °F 33.9 °F 35.6 °F 81% 30.21 in 2.5 mi North 12.7 mph - N/A   Mostly Cloudy
8:50 PM 41.0 °F 35.2 °F 33.8 °F 76% 30.21 in 3.7 mi North 9.2 mph - N/A   Mostly Cloudy
9:20 PM 41.0 °F 34.7 °F 33.8 °F 76% 30.24 in 4.3 mi North 10.4 mph - N/A   Scattered Clouds
9:50 PM 39.2 °F 33.6 °F 32.0 °F 75% 30.24 in 5.0 mi North 8.1 mph - N/A   Scattered Clouds
10:20 PM 37.4 °F 32.1 °F 32.0 °F 81% 30.24 in 4.3 mi North 6.9 mph - N/A   Scattered Clouds
10:50 PM 37.4 °F 32.1 °F 32.0 °F 81% 30.24 in 4.3 mi North 6.9 mph - N/A   Scattered Clouds
11:20 PM 35.6 °F 31.7 °F 30.2 °F 81% 30.21 in 3.7 mi NNW 4.6 mph - N/A   Scattered Clouds
11:50 PM 35.6 °F 29.9 °F 30.2 °F 81% 30.21 in 3.7 mi NNW 6.9 mph - N/A   Scattered Clouds